Starlink 32085

operational
NORAD ID: 59685 Int'l Des: 2024-086 Owner: SPXS Country: US Constellation: starlink
LEOCIRCULAR

关于 Starlink 32085

正在加载描述...

实时位置

正在加载3D地球...

即将过境

高度历史

Altitude vs Time

uPlot chart will show altitude changes over time

两行轨道根数

1 59685U 24086D 26035.28840530 .00000106 00000-0 13387-4 0 9992
2 59685 43.0003 248.5468 0001023 303.6103 56.4651 15.27573925 99005
Epoch: Feb 4, 2026 • Age: 13 hours

当前状态

高度 484.4 km
速度 7.63 km/s
星下点 30.62°N, 49.43°W
发射日期 May 8, 2024
运行时间 1.7 years
类型 internet

技术详情

分类 Payload
质量 730.00 kg
干质量 700.00 kg
总质量 730.00 kg
长度 0.30 m
直径 4.10 m
跨度 29.00 m
形状 Box + pan
制造商 SPXS
平台类型 Starlink V2M
阶段状态 In Orbit
所有者/国家 SPXS/US

大型星座

Loading constellations...